Theta_e
277 278 278 279 280 281 283 285 287 290 292 293 295 296 296 298 302 315 313 311 312 312
276 276 276 278 280 281 282 284 286 288 291 292 293 295 297 301 306 313 314 312 312 310
275 276 276 277 277 279 281 283 285 286 288 290 292 293 293 294 300 311 314 311 310 308
274 275 275 276 276 278 280 282 283 285 286 288 289 291 292 293 298 309 311 307 307 307
274 274 274 275 276 278 278 281 282 284 286 287 289 291 292 292 299 307 307 306 306 304
272 273 273 274 276 277 278 279 281 284 285 287 288 290 291 298 302 305 307 305 305 302
272 273 273 274 275 275 277 278 280 282 285 287 288 290 290 294 300 304 303 303 304 302
271 273 273 273 275 276 277 278 280 281 283 287 289 291 290 293 298 301 300 300 301 301
274 275 275 274 274 276 277 278 280 282 284 286 290 292 292 294 296 296 297 296 298 299
276 279 279 276 275 275 276 278 280 282 285 287 287 293 295 295 296 296 297 297 296 295
276 280 278 277 276 276 278 279 281 283 284 288 289 292 296 294 297 296 296 296 296 295
276 279 282 279 279 280 281 283 283 284 286 288 291 293 295 295 295 295 294 295 295 295
277 278 279 282 285 285 285 285 286 286 289 290 292 293 295 295 293 291 292 292 293 289
275 277 279 280 282 284 285 285 285 285 286 289 291 293 294 296 292 291 290 290 290 291
Wind_Speed
16 11 12 14 13 12 12 11 13 14 12 12 10 10 10 9 10 13 10 15 12 12
15 16 15 16 15 13 15 13 16 16 14 13 12 12 12 7 11 13 13 12 14 10
16 17 16 16 18 18 16 17 16 17 17 16 13 12 11 10 12 14 11 10 13 11
17 18 17 18 18 18 17 17 18 17 16 16 14 12 11 12 13 17 13 12 14 15
18 18 19 19 19 18 20 17 18 18 18 18 16 15 13 13 14 16 16 15 16 14
19 19 19 19 18 19 19 20 19 19 19 17 16 15 15 12 15 15 17 16 17 16
19 20 19 19 20 20 19 20 21 20 18 19 17 15 15 12 9 15 11 16 16 16
20 20 19 19 20 19 19 19 19 18 19 17 16 12 15 12 12 12 13 14 14 16
19 19 19 19 19 19 18 19 18 18 18 18 12 21 23 17 12 10 14 12 11 12
19 17 15 17 18 18 17 18 18 19 17 18 13 21 22 21 13 12 15 14 13 10
22 16 7 13 15 15 15 17 17 19 18 16 13 21 22 23 15 13 14 15 15 15
21 18 2 10 13 13 14 13 13 15 17 16 12 23 23 21 14 15 13 14 15 16
20 18 14 8 10 10 10 9 10 13 12 12 13 19 25 23 10 11 11 12 13 18
21 19 17 13 11 9 8 8 7 8 5 11 12 15 27 27 13 12 12 11 11 11
Wind_Direction
263 258 256 251 249 249 245 246 245 251 249 249 244 240 235 240 246 231 193 188 171 163
264 257 255 254 251 246 244 240 242 244 247 244 250 248 245 243 246 229 193 193 178 170
265 260 255 250 247 245 244 241 240 237 239 242 244 246 245 245 257 229 195 178 179 167
266 260 254 248 245 243 244 238 235 236 236 238 234 238 241 237 242 236 206 162 177 169
267 259 250 246 242 241 239 236 234 234 233 233 235 234 235 233 231 231 183 179 172 171
264 255 246 241 237 235 235 235 232 229 229 227 229 232 231 239 224 228 191 174 175 170
269 258 247 237 228 228 226 227 228 228 225 223 225 229 227 222 212 203 194 174 177 171
272 258 242 231 225 220 219 221 221 220 226 223 221 221 219 211 208 199 191 179 172 180
283 262 234 217 211 210 209 215 216 218 214 219 219 217 217 200 198 205 178 180 176 178
314 297 205 193 193 198 202 207 211 215 214 210 220 214 208 189 187 178 179 184 174 163
339 344 125 164 179 186 197 202 206 210 209 208 221 216 201 185 182 182 183 179 175 171
350 353 61 171 178 184 190 192 198 210 206 205 220 210 195 179 181 190 178 176 172 170
359 5 11 34 178 172 179 190 195 198 201 198 213 194 191 182 173 171 171 164 169 168
0 10 16 29 44 84 107 109 119 116 131 189 188 190 181 178 169 167 164 157 154 160